KC4LW Weather Reports


time (UTC)temp
F
wind
direction
speed
knots
gust
knots
rain 1hr
in
rain 24hr
in
rain mn
in
humidity
%
barometer
mb
20240614131550 83 36 0.9 5.2 0.00 0.00 0.00 82 1013.3
20240614130122 81 182 0.0 3.5 0.00 0.00 0.00 89 1013.2
20240614124603 79 286 0.0 3.5 0.00 0.00 0.00 93 1013.2
20240614123048 78 0 0.9 2.6 0.00 0.00 0.00 94 1013.2
20240614121602 77 0 0.0 1.7 0.00 0.00 0.00 95 1013.0
20240614120059 77 271 0.0 2.6 0.00 0.00 0.00 95 1013.0
20240614114547 76 298 0.0 2.6 0.00 0.00 0.00 95 1012.7
20240614113056 76 281 0.0 2.6 0.00 0.00 0.00 95 1012.5
20240614111556 76 288 0.9 2.6 0.00 0.00 0.00 94 1012.6
20240614110112 76 286 0.0 2.6 0.00 0.00 0.00 94 1012.6
20240614104548 76 0 0.0 1.7 0.00 0.00 0.00 93 1012.4
20240614103051 76 185 0.0 0.9 0.00 0.00 0.00 93 1012.5
20240614101610 77 0 0.0 0.0 0.00 0.00 0.00 92 1012.1
20240614100056 77 0 0.0 0.9 0.00 0.00 0.00 92 1011.9
20240614094600 77 0 0.0 0.9 0.00 0.00 0.00 92 1012.0
20240614093050 77 0 0.0 0.9 0.00 0.00 0.00 91 1012.0
20240614091603 77 0 0.0 0.9 0.00 0.00 0.00 91 1012.1
20240614090109 78 0 0.0 0.9 0.00 0.00 0.00 91 1011.9
20240614084602 77 0 0.0 0.0 0.00 0.00 0.00 91 1011.8
20240614083058 78 0 0.0 1.7 0.00 0.00 0.00 91 1011.7
20240614081553 78 0 0.0 0.9 0.00 0.00 0.00 92 1011.6
20240614080050 77 102 0.0 1.7 0.00 0.00 0.00 92 1011.5
20240614074551 77 71 0.0 1.7 0.00 0.00 0.00 91 1011.6
20240614073047 77 0 0.0 0.0 0.00 0.00 0.00 91 1011.5
20240614071551 78 0 0.0 0.9 0.00 0.00 0.00 91 1011.6
20240614070052 78 0 0.0 1.7 0.00 0.00 0.00 91 1011.7
20240614064556 78 0 0.0 1.7 0.00 0.00 0.00 91 1011.7
20240614063056 78 0 0.0 0.9 0.00 0.00 0.00 91 1011.6
20240614061552 78 92 0.0 0.9 0.00 0.00 0.00 91 1011.9
20240614060108 78 0 0.0 0.9 0.00 0.00 0.00 90 1012.0
20240614054550 78 0 0.0 0.0 0.00 0.00 0.00 89 1012.2
20240614053058 79 92 0.0 1.7 0.00 0.00 0.00 89 1012.3
20240614051557 79 76 0.0 2.6 0.00 0.00 0.00 89 1012.4
20240614050053 79 54 0.0 1.7 0.00 0.00 0.00 89 1012.5
20240614044549 79 111 0.0 2.6 0.00 0.00 0.00 89 1012.5
20240614043049 79 200 0.0 0.9 0.00 0.00 0.00 89 1012.7
20240614041557 79 0 0.0 1.7 0.00 0.00 0.00 88 1012.7
20240614040103 79 0 0.0 1.7 0.00 0.00 0.00 88 1012.7
20240614034603 79 0 0.0 1.7 0.00 0.00 0.00 88 1012.8
20240614033052 79 71 0.0 2.6 0.00 0.00 0.00 88 1012.6
20240614031554 80 0 0.0 1.7 0.00 0.00 0.00 87 1012.4
20240614030057 80 0 0.0 5.2 0.00 0.00 0.00 87 1012.5
20240614024552 80 0 0.9 3.5 0.00 0.00 0.00 88 1012.7
20240614023105 80 78 0.9 5.2 0.00 0.00 0.00 87 1012.5
20240614021553 80 0 0.0 5.2 0.00 0.00 0.00 87 1012.2
20240614020049 80 103 0.0 3.5 0.00 0.00 0.00 87 1012.4
20240614014548 80 92 0.0 3.5 0.00 0.00 0.00 87 1012.3
20240614013048 80 101 0.0 5.2 0.00 0.00 0.00 86 1012.7
20240614011620 80 44 0.9 7.8 0.00 0.00 0.00 85 1012.3
20240614010050 81 296 0.9 5.2 0.00 0.00 0.00 85 1012.4
20240614004554 81 25 0.9 5.2 0.00 0.00 0.00 84 1012.4
20240614003117 81 113 0.9 5.2 0.00 0.00 0.00 84 1012.4
20240614001603 81 0 1.7 7.0 0.00 0.00 0.00 83 1012.3
20240614000052 81 110 0.9 7.0 0.00 0.00 0.00 83 1012.4
20240613234604 82 40 1.7 6.1 0.00 0.00 0.00 82 1012.4
20240613233050 82 85 0.9 7.0 0.00 0.00 0.00 81 1012.1
20240613231602 83 61 1.7 8.7 0.00 0.00 0.00 81 1012.2
20240613230101 83 89 1.7 6.1 0.00 0.00 0.00 81 1012.4
20240613224601 84 138 0.9 7.8 0.00 0.00 0.00 81 1012.3
20240613223059 84 20 0.9 7.0 0.00 0.00 0.00 80 1012.3
20240613221618 85 99 1.7 7.8 0.00 0.00 0.00 78 1012.2
20240613220057 86 117 0.0 3.5 0.00 0.00 0.00 77 1012.0
20240613214601 87 84 0.9 7.0 0.00 0.00 0.00 76 1012.1
20240613213058 88 77 0.9 3.5 0.00 0.00 0.00 75 1011.8
20240613211554 87 119 1.7 6.1 0.00 0.00 0.00 75 1012.1
20240613210055 87 310 0.9 5.2 0.00 0.00 0.00 75 1012.1
20240613204555 87 47 1.7 6.1 0.00 0.00 0.00 75 1012.1
20240613203055 87 109 1.7 7.8 0.00 0.00 0.00 74 1012.2
20240613201557 87 55 2.6 7.8 0.00 0.00 0.00 73 1011.9
20240613200047 87 107 2.6 7.8 0.00 0.00 0.00 70 1012.0
20240613194551 87 155 0.9 6.1 0.00 0.00 0.00 70 1012.3
20240613193102 87 135 1.7 7.8 0.00 0.00 0.00 72 1012.1
20240613191553 86 52 1.7 5.2 0.00 0.00 0.00 76 1012.6
20240613190053 85 5 0.9 6.1 0.00 0.00 0.00 76 1012.6
20240613184559 88 62 1.7 5.2 0.00 0.00 0.00 73 1012.7
20240613183102 88 108 0.9 7.8 0.00 0.00 0.00 73 1012.8
20240613181559 88 20 0.9 11.3 0.00 0.00 0.00 73 1013.0
20240613180054 88 112 1.7 4.3 0.00 0.00 0.00 73 1012.8
20240613174617 88 136 1.7 8.7 0.00 0.00 0.00 74 1012.9
20240613173133 88 180 1.7 7.0 0.00 0.00 0.00 71 1012.9
20240613171623 89 71 2.6 9.6 0.00 0.00 0.00 68 1012.8
20240613170057 90 93 1.7 4.3 0.00 0.00 0.00 70 1012.7
20240613164556 89 342 0.9 6.1 0.00 0.00 0.00 71 1012.7
20240613163054 89 65 0.9 5.2 0.00 0.00 0.00 72 1012.6
20240613161603 88 106 1.7 7.0 0.00 0.00 0.00 73 1012.5
20240613160050 88 128 1.7 7.0 0.00 0.00 0.00 75 1012.7
20240613154553 88 126 1.7 7.8 0.00 0.00 0.00 72 1012.9
20240613153109 88 76 0.9 4.3 0.00 0.00 0.00 72 1012.9
20240613151550 87 25 1.7 6.1 0.00 0.00 0.00 74 1012.8
20240613150050 86 71 1.7 6.1 0.00 0.00 0.00 76 1012.9
20240613144559 86 69 2.6 7.0 0.00 0.00 0.00 77 1013.0
20240613143054 85 101 0.9 4.3 0.00 0.00 0.00 78 1012.9
20240613141553 85 146 0.9 5.2 0.00 0.00 0.00 78 1013.0
20240613140051 84 113 0.9 6.1 0.00 0.00 0.00 80 1012.9
20240613134607 84 56 0.9 6.1 0.00 0.00 0.00 80 1012.9
20240613133059 83 84 0.9 5.2 0.00 0.00 0.00 82 1013.0